Weather History for Jerome, ID

Change the Weather History Date:

Tuesday, March 25, 2014

  Actual Average Record
Temperature  
Mean Temperature 53 °F 43 °F  
Max Temperature 72 °F 53 °F 74 °F (1960)
Min Temperature 33 °F 33 °F 9 °F (1965)
Degree Days  
Heating Degree Days 12 22  
Month to date heating degree days 562 639  
Since 1 July heating degree days 5230 5526  
Cooling Degree Days 0 0  
Month to date cooling degree days 0 0  
Year to date cooling degree days 0 0  
Growing Degree Days 2 (Base 50)    
Moisture  
Dew Point 18 °F    
Average Humidity 35    
Maximum Humidity 61    
Minimum Humidity 9    
Precipitation  
Precipitation 0.00 in 0.04 in 0.55 in (1950)
Month to date precipitation 0.69 0.79  
Year to date precipitation 3.03 2.73  
Sea Level Pressure  
Sea Level Pressure 29.80 in    
Wind  
Wind Speed 13 mph (NNE)    
Max Wind Speed 25 mph    
Max Gust Speed 32 mph    
Visibility 10 miles    
Events      
T = Trace of Precipitation, MM = Missing Value Source: NWS Daily Summary

Daily Weather History Graph

Daily Weather History Graph

Search for Another Location

Airport:

Trip Planner

Search our weather history database for the weather conditions in past years. The results will help you decide how hot, cold, wet, or windy it might be!

Date:

Astronomy

Mar. 25, 2014 Rise Set
Actual Time 7:32 AM MDT 7:56 PM MDT
Civil Twilight 7:03 AM MDT 8:24 PM MDT
Nautical Twilight 6:30 AM MDT 8:57 PM MDT
Astronomical Twilight 5:56 AM MDT 9:32 PM MDT
Moon 4:04 AM MDT 2:24 PM MDT
Length of Visible Light 13h 20m
Length of Day
12h 23m
Waning Crescent, 31% of the Moon is Illuminated
Mar 25
Waning Crescent
Mar 30
New
Apr 7
First Quarter
Apr 15
Full
Apr 22
Last Quarter

Hourly Weather History & Observations

Time (MDT) Temp. Windchill Dew Point Humidity Pressure Visibility Wind Dir Wind Speed Gust Speed Precip Events Conditions
12:53 AM 45.0 °F 39.7 °F 18.0 °F 34% 30.06 in 10.0 mi East 10.4 mph - N/A   Clear
1:53 AM 46.0 °F 41.4 °F 17.1 °F 31% 30.04 in 10.0 mi ENE 9.2 mph - N/A   Clear
2:53 AM 41.0 °F 34.3 °F 19.0 °F 41% 30.02 in 10.0 mi NE 11.5 mph - N/A   Clear
3:53 AM 39.0 °F 34.0 °F 19.0 °F 45% 29.99 in 10.0 mi ENE 6.9 mph - N/A   Clear
4:53 AM 34.0 °F 24.6 °F 19.9 °F 56% 29.99 in 10.0 mi NE 13.8 mph - N/A   Clear
5:53 AM 34.0 °F 24.2 °F 21.0 °F 59% 29.97 in 10.0 mi NNE 15.0 mph - N/A   Clear
6:53 AM 33.1 °F 22.2 °F 21.0 °F 61% 29.97 in 10.0 mi NNE 17.3 mph - N/A   Clear
7:53 AM 34.0 °F 23.8 °F 19.9 °F 56% 29.97 in 10.0 mi NE 16.1 mph - N/A   Clear
8:53 AM 41.0 °F 33.1 °F 19.9 °F 43% 29.96 in 10.0 mi NE 15.0 mph - N/A   Clear
9:53 AM 46.9 °F - 23.0 °F 39% 29.93 in 10.0 mi NE 16.1 mph - N/A   Clear
10:53 AM 54.0 °F - 24.1 °F 31% 29.89 in 10.0 mi NNE 15.0 mph - N/A   Clear
11:53 AM 61.0 °F - 18.0 °F 19% 29.85 in 10.0 mi Variable 6.9 mph - N/A   Clear
12:53 PM 64.9 °F - 17.1 °F 16% 29.79 in 10.0 mi East 5.8 mph - N/A   Clear
1:53 PM 69.1 °F - 16.0 °F 13% 29.73 in 10.0 mi East 8.1 mph - N/A   Clear
2:53 PM 70.0 °F - 10.0 °F 10% 29.67 in 10.0 mi East 4.6 mph - N/A   Clear
3:53 PM 71.1 °F - 10.9 °F 10% 29.64 in 10.0 mi WSW 16.1 mph 27.6 mph N/A   Clear
4:50 PM 69.8 °F - 15.8 °F 13% 29.68 in 10.0 mi West 17.3 mph - N/A   Clear
4:53 PM 69.1 °F - 15.1 °F 13% 29.64 in 10.0 mi West 16.1 mph - N/A   Clear
5:53 PM 66.9 °F - 16.0 °F 14% 29.62 in 10.0 mi WSW 12.7 mph - N/A   Clear
6:53 PM 62.1 °F - 12.9 °F 15% 29.61 in 10.0 mi West 18.4 mph - N/A   Clear
7:53 PM 57.0 °F - 16.0 °F 20% 29.60 in 10.0 mi WNW 10.4 mph - N/A   Clear
8:53 PM 55.0 °F - 17.1 °F 23% 29.59 in 10.0 mi WSW 11.5 mph - N/A   Clear
9:53 PM 53.1 °F - 18.0 °F 25% 29.62 in 10.0 mi West 18.4 mph 23.0 mph N/A   Mostly Cloudy
10:53 PM 51.1 °F - 19.0 °F 28% 29.61 in 10.0 mi West 15.0 mph - N/A   Mostly Cloudy
11:53 PM 50.0 °F - 21.9 °F 33% 29.60 in 10.0 mi WSW 13.8 mph - N/A   Clear